EA3GYL La Torregassa ES current weather conditions

sailwx.info

Air temperature 11.1° C
Dewpoint 10.5° C

Last reported at 2016-Feb-11 09:40 UTC.
Time now 2016-Feb-11 10:47 UTC

Location: N 41°17' E 001°31'.
View on Google Maps.

See reports from other nearby stations

  
Tides and Currents Weather Stations Pressure Air Temp Water Temp Dewpoint Dewpoint Depression Visibility Wind Speed Wind Dir Waves Ship Positions
date/time (UTC)wind fromknots sea level pressurealtimeterstation pressurevisibilityair tempwater tempwave heightnotes
2016-Feb-11 09:40 11.1
2016-Feb-11 09:30 11.1
2016-Feb-11 09:20 11.1
2016-Feb-11 09:10 10.6
2016-Feb-11 02:08 254 8.9
2016-Feb-11 01:50 254 8.9
2016-Feb-11 01:33 223 0 gusting 2 8.9
2016-Feb-11 01:16 214 9.4
2016-Feb-11 00:59 214 9.4
2016-Feb-11 00:42 255 9.4
2016-Feb-11 00:25 230 9.4
2016-Feb-11 00:08 238 9.4
2016-Feb-10 23:50 188 9.4
2016-Feb-10 23:34 165 9.4
2016-Feb-10 23:17 165 9.4
2016-Feb-10 22:59 165 9.4
2016-Feb-10 22:42 143 10.0
2016-Feb-10 22:25 150 1 gusting 3 10.0
2016-Feb-10 22:08 128 0 gusting 3 10.6
2016-Feb-10 21:50 147 2 gusting 5 11.7
2016-Feb-10 21:17 248 12.2
2016-Feb-10 20:59 008 1 gusting 3 12.2
2016-Feb-10 20:42 223 12.8
2016-Feb-10 20:25 211 2 gusting 11 13.3
2016-Feb-10 20:09 256 5 gusting 8 13.9
2016-Feb-10 19:51 213 1 gusting 6 13.9
2016-Feb-10 19:34 236 13.3
2016-Feb-10 19:17 241 4 gusting 8 13.3
2016-Feb-10 19:00 233 1 gusting 11 13.9
2016-Feb-10 18:43 272 5 gusting 13 13.9
2016-Feb-10 18:26 237 6 gusting 13 13.9
2016-Feb-10 18:09 222 4 gusting 9 13.9
2016-Feb-10 17:52 254 6 gusting 10 13.9
2016-Feb-10 17:35 253 2 gusting 6 13.9
2016-Feb-10 17:18 255 0 gusting 5 14.4
2016-Feb-10 17:01 221 0 gusting 6 15.0
2016-Feb-10 16:40 224 2 gusting 4 15.6
2016-Feb-10 16:30 226 2 gusting 6 15.6
2016-Feb-10 16:20 225 2 gusting 5 15.6
2016-Feb-10 16:10 224 2 gusting 6 15.0
2016-Feb-10 16:00 218 4 gusting 7 15.6
2016-Feb-10 15:50 214 3 gusting 7 15.6
2016-Feb-10 15:40 214 4 gusting 7 15.0
2016-Feb-10 15:30 216 3 gusting 9 15.0
2016-Feb-10 15:20 224 4 gusting 8 15.0
2016-Feb-10 15:10 221 3 gusting 8 14.4
2016-Feb-10 15:00 224 4 gusting 6 14.4
2016-Feb-10 14:50 225 4 gusting 8 13.9
2016-Feb-10 14:40 225 3 gusting 8 13.9
2016-Feb-10 14:30 226 3 gusting 7 13.9
2016-Feb-10 14:20 232 3 gusting 7 13.9
2016-Feb-10 14:10 230 3 gusting 7 13.9
2016-Feb-10 14:00 228 3 gusting 8 13.9
2016-Feb-10 13:50 225 5 gusting 9 13.9
2016-Feb-10 13:40 215 6 gusting 11 14.4
2016-Feb-10 12:40 210 6 gusting 12 15.0
2016-Feb-10 12:30 212 6 gusting 12 15.0
2016-Feb-10 12:20 209 6 gusting 11 15.0
2016-Feb-10 12:10 168 1 gusting 11 15.0
2016-Feb-10 12:00 138 1 gusting 3 14.4
2016-Feb-10 11:50 14.4
2016-Feb-10 11:40 184 0 gusting 3 14.4
2016-Feb-10 11:30 202 2 gusting 5 13.9
2016-Feb-10 11:20 204 3 gusting 6 13.9
2016-Feb-10 11:10 218 2 gusting 6 13.9
2016-Feb-10 11:00 211 3 gusting 7 13.9
2016-Feb-10 10:50 211 4 gusting 7 13.9
2016-Feb-10 10:40 220 4 gusting 8 13.3
2016-Feb-10 10:30 198 5 gusting 11 13.3
2016-Feb-10 10:20 202 3 gusting 9 13.3
2016-Feb-10 10:10 202 6 gusting 11 12.8
2016-Feb-10 10:00 208 6 gusting 13 12.8
2016-Feb-10 09:50 207 5 gusting 11 12.8
2016-Feb-10 09:40 212 5 gusting 11 12.2
2016-Feb-10 08:23 238 6 gusting 14 12.2
2016-Feb-10 07:08 237 6 gusting 13 11.7
2016-Feb-10 05:52 200 11 gusting 24 12.2
2016-Feb-10 05:08 252 9 gusting 19 12.8
2016-Feb-10 04:50 261 6 gusting 18 12.8
2016-Feb-10 04:32 223 6 gusting 17 12.8
2016-Feb-10 04:15 202 4 gusting 14 12.8
2016-Feb-10 03:57 265 6 gusting 18 12.8
2016-Feb-10 03:41 273 9 gusting 19 12.8
2016-Feb-10 03:24 262 9 gusting 21 12.8
2016-Feb-10 03:07 247 9 gusting 19 13.3
2016-Feb-10 02:49 225 7 gusting 18 13.3
2016-Feb-10 02:32 215 6 gusting 18 13.3
2016-Feb-10 02:15 252 12 gusting 24 12.8
2016-Feb-10 01:57 287 8 gusting 21 12.8
2016-Feb-10 01:41 235 13 gusting 22 12.8
2016-Feb-10 01:24 252 12 gusting 23 12.8
2016-Feb-10 01:07 251 10 gusting 19 12.8
2016-Feb-10 00:09 248 9 gusting 18 13.3
2016-Feb-09 23:30 250 10 gusting 19 13.3
2016-Feb-09 23:20 247 8 gusting 19 13.3
2016-Feb-09 23:10 250 11 gusting 22 13.9
2016-Feb-09 23:00 248 9 gusting 21 13.9
2016-Feb-09 22:50 249 10 gusting 19 13.9
2016-Feb-09 22:40 248 10 gusting 19 13.9
2016-Feb-09 22:30 247 10 gusting 23 13.9
2016-Feb-09 22:20 255 13 gusting 24 14.4
2016-Feb-09 22:10 257 13 gusting 24 14.4
2016-Feb-09 22:00 257 14 gusting 26 15.0
2016-Feb-09 21:50 251 10 gusting 25 15.0
2016-Feb-09 21:40 249 11 gusting 20 15.6
2016-Feb-09 21:30 255 12 gusting 23 16.1
2016-Feb-09 21:20 246 11 gusting 22 16.7
2016-Feb-09 21:10 249 9 gusting 21 17.2
2016-Feb-09 21:00 242 9 gusting 19 17.8
2016-Feb-09 20:50 235 13 gusting 26 17.8
2016-Feb-09 20:40 232 12 gusting 24 17.8
2016-Feb-09 20:30 234 13 gusting 28 18.3
2016-Feb-09 20:20 234 15 gusting 29 18.3
2016-Feb-09 20:10 235 14 gusting 26 18.3
2016-Feb-09 20:00 232 13 gusting 26 18.3
2016-Feb-09 19:50 239 11 gusting 33 18.3
2016-Feb-09 19:40 241 11 gusting 26 18.3
2016-Feb-09 19:30 236 13 gusting 27 18.3
2016-Feb-09 19:20 233 13 gusting 25 18.3
2016-Feb-09 19:10 238 11 gusting 24 18.3
2016-Feb-09 19:00 234 12 gusting 26 18.3
2016-Feb-09 18:50 237 11 gusting 21 18.9
2016-Feb-09 18:40 235 11 gusting 24 18.3
2016-Feb-09 18:30 234 9 gusting 25 18.3
2016-Feb-09 18:20 231 6 gusting 18 18.3
2016-Feb-09 17:50 229 6 gusting 13 17.2
2016-Feb-09 16:50 230 10 gusting 18 17.8
2016-Feb-09 16:30 228 11 gusting 22 17.8
2016-Feb-09 16:20 229 11 gusting 23 18.3
2016-Feb-09 16:10 227 12 gusting 24 18.3
2016-Feb-09 16:00 231 10 gusting 20 17.8
2016-Feb-09 15:50 229 12 gusting 24 17.8
2016-Feb-09 15:40 230 12 gusting 25 17.8
2016-Feb-09 15:30 234 12 gusting 21 17.8
2016-Feb-09 15:20 232 13 gusting 23 17.8
2016-Feb-09 15:10 233 11 gusting 26 17.8
2016-Feb-09 15:00 237 10 gusting 26 18.3
2016-Feb-09 14:50 237 10 gusting 19 18.3
2016-Feb-09 14:40 238 11 gusting 20 17.8
2016-Feb-09 14:30 238 8 gusting 19 17.8
2016-Feb-09 14:20 234 9 gusting 23 17.8
2016-Feb-09 14:10 242 10 gusting 25 17.8
2016-Feb-09 14:00 231 10 gusting 25 18.3
2016-Feb-09 13:50 241 8 gusting 20 18.3
2016-Feb-09 13:40 231 10 gusting 23 18.3
2016-Feb-09 13:30 239 11 gusting 23 18.3
2016-Feb-09 13:20 235 9 gusting 20 18.3
2016-Feb-09 13:10 236 6 gusting 19 17.8
2016-Feb-09 13:00 239 7 gusting 14 17.8
2016-Feb-09 12:50 245 6 gusting 13 17.8
2016-Feb-09 12:40 247 8 gusting 15 17.8
2016-Feb-09 12:30 247 10 gusting 18 17.8
2016-Feb-09 12:20 238 7 gusting 17 18.3
2016-Feb-09 12:10 243 7 gusting 18 17.8
2016-Feb-09 12:00 247 9 gusting 19 17.8
2016-Feb-09 11:50 253 9 gusting 19 17.8
2016-Feb-09 11:40 243 7 gusting 15 18.3
2016-Feb-09 11:30 235 9 gusting 19 17.8
2016-Feb-09 11:20 234 10 gusting 21 17.8
2016-Feb-09 11:10 230 10 gusting 20 17.8
2016-Feb-09 11:00 235 11 gusting 19 17.2
2016-Feb-09 10:50 241 11 gusting 22 17.2
2016-Feb-09 10:40 236 9 gusting 21 17.2
2016-Feb-09 10:30 237 10 gusting 19 16.7
2016-Feb-09 10:20 237 7 gusting 22 16.7
2016-Feb-09 10:10 235 7 gusting 17 16.7
2016-Feb-09 10:00 235 7 gusting 16 16.1